星链-11299 (STARLINK-11299)

导读 | 豆包AI

STARLINK-11299是美国太空探索技术公司Starlink星座的成员,于2024年9月13日发射入轨,属于Starlink Group批次的组网卫星。它旨在为全球提供低延迟、高速率的宽带互联网服务,弥补偏远地区网络覆盖不足,同时也支撑星链在通信、导航等多领域的布局,是Starlink大规模组网进程中重要的一颗卫星。

基本信息
目录编号:
61058
目录名称:
STARLINK-11299
国际标识:
2024-164J
轨道中心:
EARTH
卫星名称:
星链-11299
卫星全名:
星链-11299 (STARLINK-11299)
卫星状态:
在轨 (已飞行548 天)
发射日期:
2024-09-13 UTC
国别 :
美国 (US)
星等 :
--
轨道信息
数据来源 国际轨道数据
星历时间: 2026-03-15T04:08:56+0800
15小时前
查看轨道信息
半长轴: 6737.831km
偏心率: 0.0000681
轨道倾角: 53.158°
近地点辐角 169.208°
升交点赤经 286.176°
平近点角 190.896°
近地点: 359.235km
远地点: 360.153km
周期: 91.736分钟
每日圈数: 15.697216
详细信息
固有亮度:
5
最大亮度:
2.5
卫星平台:
Starlink V1.0
覆盖范围:
全球
运营商:
太空探索技术公司
运营商所在国:
美国
制造商(研发单位):
太空探索技术公司
制造商所在国:
美国
使用方式:
暂无
卫星简介
Starlink 计划是 SpaceX 推出的全球卫星互联网项目,通过发射低轨道卫星,为全球尤其是偏远地区提供高速、低延迟的互联网服务。自 2019 年起,Starlink 已部署数千颗卫星,旨在缩小全球数字鸿沟,推动互联网普及。该项目还为军事、航空等行业提供通信支持,带来广泛经济效益。
2D轨道图
3D轨道图
轨道高度分析图
轨道倾角分析图
轨道综合分析图
查看轨道综合分析图